Flag for U.S.A. Weather past 2 weeks in Spokane, Washington, U.S.A.

Now
41 °F

Light rain. Overcast.


Feels Like: 41 °F
Forecast: 36 / 43 °F
Wind: No wind

Location: Felts Field

Current Time: Dec 19, 2014 at 5:17:58 AM

Latest Report: Dec 19, 2014 at 4:53 AM


Visibility: 8 mi

Pressure: 29.91 "Hg

Humidity: 93%

Dew point: 39 °F

Location of SpokaneLocation

Historic Weather in Spokane — Graph

°F

Spokane temperature yesterday

Maximum temperature yesterday: 43 °F (at 1:53 PM)
Minimum temperature yesterday: 37 °F (at 12:53 AM)
Average temperature yesterday: 39 °F

Past Weeks' High & Low Weather Summary

 TemperatureHumidityPressure
High62 °F (Dec 10, 6:53 PM)97% (Dec 7, 8:53 AM)30.38 "Hg (Dec 7, 8:53 AM)
Low26 °F (Dec 15, 2:56 AM)34% (Dec 10, 6:53 PM)29.42 "Hg (Dec 11, 4:53 PM)
Average39 °F84%30.03 "Hg
* Reported Dec 4 3:53 AM — Dec 19 3:53 AM, Spokane, Weather by CustomWeather, © 2014

Note: Actual official high and low records may vary slightly from our data, if they occured in-between our weather recording intervals... More about our weather records

Advertising

Spokane weather history for previous 24 hours

 ConditionsComfort  
Time TempWeatherWind HumidityBarometerVisibility
3:53 AM
Dec 19
42 °FOvercast.6 mph82%29.90 "Hg10 mi
2:53 AM42 °FMostly cloudy.8 mph79%29.91 "Hg10 mi
1:53 AM40 °FMostly cloudy.No wind89%29.94 "Hg10 mi
12:53 AM40 °FOvercast.No wind93%29.94 "Hg8 mi
11:53 PM
Dec 18
39 °FFog.No wind93%29.96 "Hg4 mi
10:53 PM39 °FFog.No wind89%29.97 "Hg4 mi
9:53 PM39 °FFog.No wind89%29.97 "Hg4 mi
8:53 PM39 °FFog.No wind89%29.98 "Hg5 mi
7:53 PM38 °FFog.No wind93%29.99 "Hg5 mi
6:53 PM39 °FFog.No wind89%30.00 "Hg6 mi
5:53 PM39 °FFog.No wind93%30.01 "Hg6 mi
4:53 PM40 °FOvercast.No wind89%30.01 "Hg7 mi
3:53 PM41 °FOvercast.No wind86%30.01 "Hg7 mi
2:53 PM43 °FScattered clouds.No wind79%30.01 "Hg10 mi
1:53 PM43 °FMostly cloudy.No wind79%30.01 "Hg10 mi
12:53 PM42 °FMostly cloudy.No wind82%30.02 "Hg10 mi
11:53 AM41 °FMostly cloudy.No wind82%30.03 "Hg10 mi
10:53 AM41 °FMostly cloudy.No wind82%30.04 "Hg10 mi
9:53 AM40 °FMostly cloudy.No wind89%30.06 "Hg8 mi
8:53 AM38 °FFog.No wind93%30.05 "Hg6 mi
7:53 AM38 °FOvercast.No wind90%30.03 "Hg7 mi
6:53 AM37 °FOvercast.No wind93%30.03 "Hg7 mi
5:53 AM37 °FLight rain. Fog.No wind89%30.03 "Hg6 mi
5:02 AM37 °FFog.No wind89%29.99 "Hg5 mi
Weather by CustomWeather, © 2014

See weather overviewHow to use our weather pages